Regional Weather Roundup
Issued by NWS

Home | Current Version | Previous Version | Graphics & Text | Print | Product List | Glossary On
Versions: 1 2 3 4 5 6 7 8 9 10 11 12 13 14 15 16 17 18 19 20 21 22 23 24 25 26 27 28 29 30 31 32 33 34 35 36 37 38 39 40 41 42 43 44 45 46 47 48 49 50
000
ASUS45 KTFX 271019
RWRMT
MONTANA HOURLY WEATHER ROUNDUP
NATIONAL WEATHER SERVICE GREAT FALLS MT
419 AM MDT WED AUG 27 2014

NOTE: "FAIR" INDICATES FEW OR NO CLOUDS BELOW 12000 FEET WITH NO
SIGNIFICANT WEATHER AND/OR OBSTRUCTIONS TO VISIBILITY.

* THESE STATIONS ARE NOT UNDER NWS QUALITY CONTROL. THEY DO NOT
   REPORT WEATHER SUCH AS PRECIPITATION OR FOG.

MTZ001>007-043-271100-
WEST OF THE DIVIDE
CITY           SKY/WX    TMP DP  RH WIND       PRES   REMARKS
KALISPELL      CLEAR     46  45  96 CALM      30.08R
MISSOULA       CLEAR     54  45  72 CALM      30.14R
BUTTE          CLEAR     45  43  93 SE3       30.23S
MULLAN PASS    CLEAR     57  39  51 VRB3      30.23R
* LINCOLN      N/A       39  38  96 N/A        N/A
* LOOKOUT PASS N/A       53  44  72 N/A        N/A
* POLSON       N/A       57  45  64 S2         N/A
* RONAN APT    CLEAR     46  43  89 N/A        N/A
* SEELEY LAKE  N/A       40  38  93 N/A        N/A
* THOMP F APT  CLEAR     46  45  96 N/A        N/A
$$

MTZ008-052>055-271100-
SOUTHWEST MONTANA
CITY           SKY/WX    TMP DP  RH WIND       PRES   REMARKS
BOZEMAN        CLEAR     50  45  83 S10       30.17S
DILLON         CLEAR     48  45  89 S9        30.20S
W YELLOWSTONE  CLEAR     32  32 100 CALM      30.31R
* THREE FORKS  CLEAR     48  32  54 N/A        N/A
* BOULDER HILL N/A       51  39  64 S6         N/A
* MONIDA PASS  N/A       45  38  77 W2         N/A
* RAYNOLDS PAS N/A       42  25  51 S4         N/A
* WHITEHALL    N/A       51  47  86 NW5G10     N/A
* WISE RIVER   N/A       44  41  89 W3         N/A
$$

MTZ009>010-012-014-046-048-049-054-271100-
EAST SLOPES AND CENTRAL MONTANA
CITY           SKY/WX    TMP DP  RH WIND       PRES   REMARKS
CUT BANK       CLEAR     55  45  69 W6        30.04F
GREAT FALLS    CLEAR     54  43  67 S10       30.06F
HELENA         CLEAR     55  45  69 CALM      30.13R
MALMSTROM AFB  CLEAR     55  45  69 SW7       30.07F
* CONRAD       CLEAR     48  48 100 N/A        N/A
* DEARBORN     N/A       48  44  86 S1         N/A
* EAST GLACIER N/A       57  42  57 NW6        N/A
* MONARCH      N/A       45  38  77 SW1        N/A
* PENDROY      N/A       61  41  48 W12        N/A
* ROGERS PASS  N/A       55  38  53 W1G6       N/A
* SAINT MARY   N/A       62  42  48 S7G14      N/A
* SWEET GRASS  N/A       60  44  56 SW11       N/A
* WHITE SULPH  N/A       48  42  80 E7G13      N/A
$$

MTZ011-013-016-021-035-040-045-047-050-051-271100-
NORTH CENTRAL MONTANA
CITY           SKY/WX    TMP DP  RH WIND       PRES   REMARKS
HAVRE          CLEAR     50  46  86 S3        30.00F
LEWISTOWN      CLEAR     54  45  72 SE7       30.11S
* FORT BENTON  CLEAR     54  46  74 SW5       30.04S
* CHESTER      N/A       50  44  80 N/A        N/A
* DENTON       N/A       53  47  80 S10        N/A
* GEYSER       N/A       49  41  74 SW6        N/A
* JUDITH GAP   N/A       50  45  83 SW2        N/A
* LOMA         N/A       57  48  72 SW3        N/A
$$

MTZ017>020-022>027-061-062-271100-
NORTHEAST MONTANA
CITY           SKY/WX    TMP DP  RH WIND       PRES   REMARKS
GLASGOW        CLEAR     54  50  86 E12       30.05S
GLENDIVE       CLEAR     52  52 100 S3        30.12F
JORDAN         CLEAR     50  48  93 CALM      30.07F
SIDNEY         CLEAR     48  48 100 CALM      30.12S VSB 1/2
WOLF POINT     CLEAR     52  46  80 NE5       30.08S
* BEAVER HILL  N/A       55  52  90 SE11       N/A
* CIRCLE       N/A       56  52  87 N/A        N/A
* LINDSAY DVD  N/A       51  50  96 SE2        N/A
* NAVAJO       N/A       52  48  86 S7         N/A
$$

MTZ028>042-056>058-271100-
SOUTHCENTRAL AND SOUTHEAST MONTANA
CITY           SKY/WX    TMP DP  RH WIND       PRES   REMARKS
BAKER          CLEAR     52  50  93 E5        30.14F
BILLINGS       CLEAR     57  48  72 SW10      30.10S
LIVINGSTON     CLEAR     50  43  77 VRB3      30.16S
MILES CITY     CLEAR     57  54  90 SE9       30.09F
* LAUREL APT   CLEAR     55  45  69 N/A        N/A
* ROUNDUP APT  CLEAR     54  48  80 N/A        N/A
* ALZADA       N/A       52  52 100 SE5        N/A
* HYSHAM       N/A       66  41  40 S11G18     N/A
* LAME DEER    N/A       59  49  70 S7         N/A
* REED POINT   N/A       50  49  96 W1         N/A
* ROSCOE HILL  N/A       58  34  41 S9         N/A
$$

REGIONAL REPORTS...DAKOTAS
CITY           SKY/WX    TMP DP  RH WIND       PRES   REMARKS
WILLISTON      CLEAR     54  52  93 S5        30.12S
DICKINSON      CLEAR     48  46  93 SE8       30.14F
BEACH          N/A       50  50 100 S5        30.14F
CROSBY         CLEAR     54  54 100 S12       30.11S
TIOGA          FOG       46  46 100 CALM      30.16S VSB 1/2
WATFORD CITY   CLEAR     48  48 100 E6        30.11F
BISMARCK       FOG       50  50 100 CALM      30.18S VSB M1/4
GRAND FORKS    CLEAR     48  48 100 S3        30.16S
FARGO          CLEAR     52  52 100 CALM      30.18S
BUFFALO SD     PTCLDY    50  48  93 NE5       30.09F
RAPID CITY     MOCLDY    57  54  90 N3        30.14F
$$

REGIONAL REPORTS...WYOMING/IDAHO/WASHINGTON
CITY           SKY/WX    TMP DP  RH WIND       PRES   REMARKS
GILLETTE       PTCLDY    54  52  93 S6        30.17F
SHERIDAN       CLEAR     50  45  83 CALM      30.15S
CODY           PTCLDY    55  46  72 S6        30.19S
YELLOWSTONE LA MOCLDY    34  34 100 NW3       30.38S
SALMON         CLEAR     48  46  93 CALM      30.18S
MULLAN PASS    CLEAR     57  39  51 VRB3      30.23S
SAND POINT     CLEAR     50  50 100 CALM      30.05S
SPOKANE        CLEAR     63  43  48 SE7       30.04R
$$

REGIONAL REPORTS...ALBERTA
CITY           SKY/WX    TMP DP  RH WIND       PRES   REMARKS
CALGARY        FAIR      57  46  67 S3        29.96S
LETHBRIDGE     CLEAR     61  48  62 SW14      29.97S
MEDICINE HAT   CLEAR     55  48  77 SW9       29.93F
EDMONTON       MOCLDY    57  50  78 W6        29.86S
WATERTON GATE  N/A       63  45  52 SW15G23    N/A
CARDSTON       N/A       57  48  72 SW8        N/A
MILK RIVER     N/A       48  45  89 W2         N/A
$$

REGIONAL REPORTS...SASKATCHEWAN
CITY           SKY/WX    TMP DP  RH WIND       PRES   REMARKS
SWIFT CURRENT  CLEAR     54  46  74 S13       29.99S
MOOSE JAW      N/A       55  50  83 S12       30.01F
REGINA         FAIR      50  48  93 SE9       30.04S
VAL MARIE      N/A       48  46  93 CALM       N/A
ASSINIBOIA     N/A       50  46  86 S6         N/A
CORONACH       N/A       50  46  86 SE7        N/A

$$




USA.gov is the U.S. government's official web portal to all federal, state and local government web resources and services.